Location: Grossmotten
(48.5500°N, 15.3833°E)
Time: 08:17:07
(UTC+00:00)

Cosmos 2237 Rocket - Pass Details

Date: 15 November 2019
Orbit: 834 x 850 km, 71.0° (Epoch: 09 December)

Event Time Altitude Azimuth Distance (km) Brightness Sun altitude
Rises 05:20:17 0° 336° (NNW) 3,426 5.0 -7.8°
Reaches altitude 10° 05:23:13 10° 349° (N) 2,486 4.4 -7.3°
Maximum altitude 05:27:51 25° 44° (NE) 1,665 4.0 -6.6°
Drops below altitude 10° 05:32:26 10° 98° (E) 2,468 6.3 -5.9°
Sets 05:35:20 0° 112° (ESE) 3,397 8.4 -5.4°
